Weather History for Newberry, MI

Change the Weather History Date:

Wednesday, September 26, 2012

  Actual Average Record
Temperature  
Mean Temperature 46 °F -  
Max Temperature 57 °F 61 °F 83 °F (1920)
Min Temperature 35 °F 42 °F 26 °F (1989)
Degree Days  
Heating Degree Days 19    
Moisture  
Dew Point 40 °F    
Average Humidity 78    
Maximum Humidity 100    
Minimum Humidity 51    
Precipitation  
Precipitation 0.00 in - - ()
Sea Level Pressure  
Sea Level Pressure 30.07 in    
Wind  
Wind Speed 5 mph (WNW)    
Max Wind Speed 13 mph    
Max Gust Speed 18 mph    
Visibility 10 miles    
Events Rain    
Averages and records for this station are not official NWS values.
T = Trace of Precipitation, MM = Missing Value Source: NWS Daily Summary

Daily Weather History Graph

Daily Weather History Graph

Search for Another Location

Airport:

Trip Planner

Search our weather history database for the weather conditions in past years. The results will help you decide how hot, cold, wet, or windy it might be!

Date:

Astronomy

Sep. 26, 2012 Rise Set
Actual Time 7:34 AM EDT 7:30 PM EDT
Civil Twilight 7:04 AM EDT 8:00 PM EDT
Nautical Twilight 6:29 AM EDT 8:35 PM EDT
Astronomical Twilight 5:53 AM EDT 9:11 PM EDT
Moon 5:37 PM EDT (9/26) 3:49 AM EDT (9/26)
Length of Visible Light 12h 55m
Length of Day
11h 56m
Waxing Gibbous, 88% of the Moon is Illuminated
Sep 26
Waxing Gibbous
Sep 29
Full
Oct 8
Last Quarter
Oct 15
New
Oct 21
First Quarter

Hourly Weather History & Observations

Time (EDT) Temp. Windchill Dew Point Humidity Pressure Visibility Wind Dir Wind Speed Gust Speed Precip Events Conditions
12:35 AM 46.4 °F 45.2 °F 39.2 °F 76% 29.93 in 10.0 mi WNW 3.5 mph - N/A   Overcast
1:15 AM 42.8 °F 40.1 °F 39.2 °F 87% 29.93 in 10.0 mi WNW 4.6 mph - N/A   Mostly Cloudy
1:34 AM 44.6 °F 41.4 °F 39.2 °F 81% 29.93 in 10.0 mi WNW 5.8 mph - N/A   Scattered Clouds
2:15 AM 44.6 °F 42.2 °F 39.2 °F 81% 29.94 in 10.0 mi West 4.6 mph - N/A   Mostly Cloudy
2:34 AM 46.4 °F 43.5 °F 41.0 °F 81% 29.95 in 10.0 mi WNW 5.8 mph - N/A   Overcast
2:55 AM 46.4 °F 42.9 °F 41.0 °F 81% 29.95 in 10.0 mi WNW 6.9 mph - N/A   Overcast
3:15 AM 44.6 °F 43.1 °F 41.0 °F 87% 29.95 in 10.0 mi WNW 3.5 mph - N/A   Mostly Cloudy
3:34 AM 42.8 °F 41.1 °F 39.2 °F 87% 29.95 in 10.0 mi SW 3.5 mph - N/A   Mostly Cloudy
3:55 AM 39.2 °F 35.9 °F 37.4 °F 93% 29.96 in 10.0 mi SSW 4.6 mph - N/A   Mostly Cloudy
4:15 AM 39.2 °F - 37.4 °F 93% 29.96 in 10.0 mi Calm Calm - N/A   Overcast
4:34 AM 39.2 °F - 39.2 °F 100% 29.96 in 10.0 mi Calm Calm - N/A   Overcast
4:55 AM 41.0 °F 39.0 °F 39.2 °F 93% 29.96 in 10.0 mi West 3.5 mph - N/A   Overcast
5:15 AM 42.8 °F 41.1 °F 39.2 °F 87% 29.96 in 10.0 mi West 3.5 mph - N/A   Overcast
5:35 AM 42.8 °F 40.1 °F 39.2 °F 87% 29.96 in 10.0 mi West 4.6 mph - N/A   Overcast
5:55 AM 39.2 °F 35.9 °F 37.4 °F 93% 29.96 in 10.0 mi WSW 4.6 mph - N/A   Scattered Clouds
6:14 AM 39.2 °F 35.0 °F 37.4 °F 93% 29.97 in 10.0 mi West 5.8 mph - N/A   Clear
6:35 AM 41.0 °F 38.0 °F 39.2 °F 93% 29.97 in 10.0 mi West 4.6 mph - N/A   Mostly Cloudy
6:55 AM 39.2 °F 35.9 °F 37.4 °F 93% 29.98 in 10.0 mi West 4.6 mph - N/A   Mostly Cloudy
7:14 AM 37.4 °F 32.8 °F 35.6 °F 93% 29.99 in 10.0 mi West 5.8 mph - N/A   Scattered Clouds
7:35 AM 39.2 °F 33.6 °F 37.4 °F 93% 30.00 in 10.0 mi West 8.1 mph - N/A   Clear
7:55 AM 41.0 °F 36.4 °F 39.2 °F 93% 30.00 in 10.0 mi West 6.9 mph - N/A   Clear
8:35 AM 44.6 °F 43.1 °F 41.0 °F 87% 30.01 in 10.0 mi WNW 3.5 mph - N/A   Clear
8:54 AM 44.6 °F 42.2 °F 42.8 °F 93% 30.01 in 10.0 mi WNW 4.6 mph - N/A   Clear
9:15 AM 46.4 °F 44.3 °F 42.8 °F 87% 30.03 in 10.0 mi WNW 4.6 mph - N/A   Clear
9:34 AM 48.2 °F - 42.8 °F 82% 30.03 in 10.0 mi WNW 4.6 mph - N/A   Clear
9:55 AM 50.0 °F - 42.8 °F 76% 30.04 in 10.0 mi NNW 4.6 mph - N/A   Clear
10:15 AM 51.8 °F - 42.8 °F 71% 30.04 in 10.0 mi NNW 8.1 mph - N/A   Clear
10:34 AM 53.6 °F - 44.6 °F 72% 30.04 in 10.0 mi NNW 5.8 mph - N/A   Clear
10:55 AM 53.6 °F - 44.6 °F 72% 30.05 in 10.0 mi North 6.9 mph - N/A   Scattered Clouds
11:14 AM 53.6 °F - 42.8 °F 67% 30.06 in 10.0 mi NW 8.1 mph - N/A   Mostly Cloudy
11:35 AM 53.6 °F - 42.8 °F 67% 30.07 in 10.0 mi WNW 8.1 mph - N/A   Overcast
11:54 AM 51.8 °F - 42.8 °F 71% 30.07 in 10.0 mi NNW 3.5 mph - N/A   Overcast
12:15 PM 55.4 °F - 41.0 °F 58% 30.08 in 10.0 mi NNW 8.1 mph - N/A   Mostly Cloudy
12:35 PM 51.8 °F - 44.6 °F 76% 30.08 in 10.0 mi West 4.6 mph - N/A Rain Light Rain
12:54 PM 53.6 °F - 42.8 °F 67% 30.08 in 10.0 mi Calm Calm - N/A   Scattered Clouds
1:15 PM 53.6 °F - 39.2 °F 58% 30.09 in 10.0 mi NW 4.6 mph - N/A   Overcast
1:35 PM 53.6 °F - 37.4 °F 54% 30.09 in 10.0 mi NNW 5.8 mph - N/A   Overcast
1:54 PM 55.4 °F - 39.2 °F 54% 30.08 in 10.0 mi NNW 10.4 mph 17.3 mph N/A   Mostly Cloudy
2:15 PM 55.4 °F - 39.2 °F 54% 30.09 in 10.0 mi NNW 12.7 mph 18.4 mph N/A   Overcast
2:35 PM 55.4 °F - 39.2 °F 54% 30.09 in 10.0 mi NNW 9.2 mph - N/A   Overcast
2:54 PM 55.4 °F - 37.4 °F 51% 30.09 in 10.0 mi NW 11.5 mph 16.1 mph N/A   Mostly Cloudy
3:15 PM 55.4 °F - 39.2 °F 54% 30.09 in 10.0 mi NW 6.9 mph - N/A   Mostly Cloudy
3:34 PM 57.2 °F - 41.0 °F 55% 30.10 in 10.0 mi North 8.1 mph - N/A   Overcast
3:55 PM 53.6 °F - 41.0 °F 62% 30.10 in 10.0 mi NW 4.6 mph - N/A   Overcast
4:15 PM 53.6 °F - 41.0 °F 62% 30.10 in 10.0 mi North 8.1 mph - N/A   Overcast
4:34 PM 53.6 °F - 41.0 °F 62% 30.11 in 10.0 mi NW 5.8 mph - N/A   Overcast
4:55 PM 53.6 °F - 42.8 °F 67% 30.12 in 10.0 mi NW 5.8 mph - N/A   Mostly Cloudy
5:14 PM 53.6 °F - 42.8 °F 67% 30.12 in 10.0 mi NW 8.1 mph - N/A   Overcast
5:35 PM 53.6 °F - 42.8 °F 67% 30.13 in 10.0 mi NW 9.2 mph - N/A   Scattered Clouds
5:55 PM 51.8 °F - 42.8 °F 71% 30.14 in 10.0 mi NNW 4.6 mph - N/A   Clear
6:14 PM 51.8 °F - 42.8 °F 71% 30.14 in 10.0 mi NNW 4.6 mph - N/A   Mostly Cloudy
6:35 PM 51.8 °F - 42.8 °F 71% 30.15 in 10.0 mi NNW 4.6 mph - N/A   Mostly Cloudy
6:55 PM 50.0 °F - 42.8 °F 76% 30.16 in 10.0 mi Calm Calm - N/A   Scattered Clouds
7:14 PM 48.2 °F - 42.8 °F 82% 30.16 in 10.0 mi NW 3.5 mph - N/A   Clear
7:35 PM 48.2 °F - 41.0 °F 76% 30.17 in 10.0 mi NW 3.5 mph - N/A   Clear
7:55 PM 46.4 °F 44.3 °F 39.2 °F 76% 30.17 in 10.0 mi WNW 4.6 mph - N/A   Clear
8:14 PM 46.4 °F 43.5 °F 39.2 °F 76% 30.18 in 10.0 mi WNW 5.8 mph - N/A   Clear
8:35 PM 46.4 °F 44.3 °F 39.2 °F 76% 30.19 in 10.0 mi WNW 4.6 mph - N/A   Clear
8:54 PM 44.6 °F 42.2 °F 39.2 °F 81% 30.19 in 10.0 mi WNW 4.6 mph - N/A   Clear
9:15 PM 42.8 °F 41.1 °F 39.2 °F 87% 30.19 in 10.0 mi West 3.5 mph - N/A   Clear
9:35 PM 41.0 °F 38.0 °F 37.4 °F 87% 30.20 in 10.0 mi West 4.6 mph - N/A   Clear
9:54 PM 39.2 °F - 37.4 °F 93% 30.20 in 10.0 mi Calm Calm - N/A   Clear
10:15 PM 37.4 °F 34.9 °F 35.6 °F 93% 30.21 in 10.0 mi West 3.5 mph - N/A   Clear
10:35 PM 37.4 °F 34.9 °F 35.6 °F 93% 30.22 in 10.0 mi West 3.5 mph - N/A   Clear
10:54 PM 35.6 °F 32.8 °F 33.8 °F 93% 30.22 in 10.0 mi West 3.5 mph - N/A   Clear
11:15 PM 39.2 °F 35.0 °F 37.4 °F 93% 30.22 in 10.0 mi WNW 5.8 mph - N/A   Clear
11:35 PM 42.8 °F 40.1 °F 39.2 °F 87% 30.22 in 10.0 mi WNW 4.6 mph - N/A   Clear
11:55 PM 39.2 °F 35.9 °F 37.4 °F 93% 30.22 in 10.0 mi WNW 4.6 mph - N/A   Clear